Location: Chelle
(43.1367°N, 0.2418°E)
Time: 16:59:25
(UTC+00:00)

Daily predictions for brighter satellites

Satellite Brightness Start Highest point End
(mag) Time Altitude Azimuth Time Altitude Azimuth Time Altitude Azimuth
Cosmos 2360 Rocket 4.3 20:11:48 10° N 20:14:50 14° NE 20:17:52 10° ENE
CZ-4 R/B 3.6 20:12:28 10° SSW 20:15:43 24° W 20:19:02 10° NW
ATLAS 2AS CENTAUR R/B 4.4 20:10:34 10° NNW 20:15:49 22° NNE 20:20:55 10° ENE
Cosmos 1092 Rocket 4.2 20:12:54 10° S 20:19:15 83° W 20:25:38 10° N
Cosmos 1674 2.4 20:18:12 10° S 20:21:38 64° E 20:25:04 10° NNE
Cosmos 1515 Rocket 3.5 20:18:40 10° S 20:22:55 64° E 20:27:12 10° NNE
Lacrosse 5 rocket 3.8 20:20:58 10° W 20:23:05 14° WSW 20:25:10 10° SSW
Cosmos 2333 Rocket 4.3 20:19:54 10° N 20:23:18 16° NE 20:26:41 10° E
SL-16 R/B 3.4 20:19:37 10° N 20:24:34 29° NE 20:29:28 10° ESE
Cosmos 1633 Rocket 3.7 20:21:46 10° NNW 20:26:04 58° W 20:30:20 10° S
Atlas Centaur 2 3.8 20:19:52 10° SW 20:26:51 33° S 20:33:59 10° ESE
Cosmos 2082 Rocket 2.4 20:21:12 10° SSW 20:26:54 79° WNW 20:32:38 10° NNE
Cosmos 1908 4.1 20:23:52 10° NNE 20:27:05 30° ENE 20:30:10 11° SE
Cosmos 1470 3.0 20:23:46 10° N 20:27:19 45° ENE 20:30:53 10° SSE
Cosmos 2369 3.8 20:21:40 10° NNW 20:27:27 88° ENE 20:33:11 10° SSE
Cosmos 468 Rocket 4.4 20:23:12 10° N 20:28:18 50° ENE 20:33:15 10° SE
Ariane Rocket 4.2 20:25:17 10° SE 20:29:36 29° ENE 20:33:56 10° N
IRIDIUM 106 4.3 20:25:43 10° N 20:30:58 83° E 20:36:11 10° S
IRS-1C Rocket 4.3 20:28:13 10° SSE 20:33:21 57° ENE 20:38:31 10° N
Okean O Rocket 2.7 20:30:53 10° S 20:35:04 43° W 20:39:15 10° NNW
Cosmos 2251 Rocket 4.3 20:30:07 10° SW 20:35:18 57° WNW 20:40:34 10° NNE
RESURS DK-1 4.3 20:33:11 10° N 20:35:59 18° NE 20:38:46 10° E
ARGOS Delta rocket 3.8 20:32:21 10° SSE 20:36:48 63° ENE 20:41:10 10° N
Tiangong -1.7 20:34:05 10° W 20:37:09 47° SSW 20:39:45 13° ESE
Cosmos 1470 Rocket 3.9 20:34:50 10° NNW 20:39:10 67° W 20:43:26 10° S
KORONAS-FOTON 3.7 20:37:42 10° S 20:41:25 90° ENE 20:45:10 10° N
Cosmos 1869 Rocket 4.3 20:37:51 10° N 20:42:00 38° ENE 20:45:32 13° SE
Terra 2.4 20:39:36 12° SE 20:43:41 43° ENE 20:48:09 10° N
SPOT 3 Rocket 4.4 20:40:43 12° SE 20:44:59 36° ENE 20:49:40 10° N
Cosmos 1842 3.3 20:42:15 10° SSW 20:45:53 72° W 20:49:33 10° N
EXPRESS MD2 3.2 20:48:14 10° WSW 20:51:25 52° NNW 20:53:41 10° NE
Cosmos 540 Rocket 3.5 20:48:35 10° NNW 20:53:46 90° WSW 20:58:18 13° SSE
MetOp-B 4.3 20:52:24 10° S 20:57:44 76° WSW 21:03:07 10° NNW
Cosmos 1954 Rocket 4.3 20:56:32 10° SSW 21:01:49 73° WNW 21:07:06 10° NNE
Resurs 01 Rocket 4.1 20:58:54 10° SW 21:01:55 18° W 21:04:57 10° NW
Landsat 4 4.1 21:00:47 20° SE 21:02:50 41° ENE 21:06:06 10° N
COSMOS 2406 4.2 20:57:38 10° SW 21:03:14 52° WNW 21:08:51 10° NNE
Cosmos 1933 Rocket 3.7 20:59:01 10° NNW 21:03:27 74° W 21:07:36 11° S
CZ-4C R/B 4.4 21:02:43 10° N 21:06:43 48° WNW 21:10:41 10° SSW
Cosmos 1980 Rocket 3.6 21:02:41 10° NW 21:07:43 33° WSW 21:12:42 10° SSW
Cosmos 1356 Rocket 4.4 21:06:07 19° SE 21:08:11 30° E 21:11:51 10° NNE
Cosmos 2322 Rocket 3.0 21:03:15 10° NNW 21:08:35 40° ENE 21:12:36 17° ESE
Meteor 1-13 Rocket 4.3 21:05:43 10° S 21:11:32 88° W 21:17:17 10° N
SeaSat 1 2.5 21:07:45 17° SSE 21:11:34 81° WSW 21:16:31 10° NNW
Cosmos 676 Rocket 4.3 21:06:38 10° SSW 21:11:57 74° WNW 21:17:16 10° NNE
Cosmos 1417 Rocket 4.5 21:07:17 10° N 21:13:31 86° E 21:18:45 15° S
Cosmos 1707 3.9 21:11:30 10° SSW 21:14:54 39° WNW 21:18:19 10° N
MOS 1 Rocket 3.6 21:14:17 18° SSE 21:18:23 77° ENE 21:23:43 10° N
Cosmos 2278 3.7 21:13:08 10° NNW 21:18:54 88° WSW 21:22:56 20° SSE
USA 234 3.6 21:18:22 10° NE 21:24:52 70° NW 21:31:21 10° WSW
Cosmos 1400 Rocket 2.6 21:21:49 16° S 21:24:55 88° E 21:28:48 10° N
SL-4 R/B 4.2 21:23:42 10° WNW 21:26:56 25° N 21:30:21 10° NE
Helios 1B 4.5 21:23:56 10° NNE 21:28:16 88° ESE 21:31:53 15° SSW
Cosmos 1455 4.4 21:27:56 10° NE 21:28:49 11° ENE 21:29:35 10° E
Cosmos 2237 4.3 21:26:37 10° NNW 21:32:22 78° WSW 21:36:03 23° SSE
Meteor 2-10 Rocket 3.6 21:27:20 10° N 21:32:57 76° ENE 21:36:16 24° SSE
SPOT 5 4.2 21:30:10 10° SSW 21:33:53 28° W 21:37:41 10° NW
Cosmos 1707 Rocket 3.7 21:31:38 25° SSE 21:34:00 57° E 21:38:22 10° NNE
Cosmos 2219 Rocket 3.6 21:30:57 10° N 21:35:48 28° NE 21:39:27 15° ESE
ERS-1 Rocket 3.6 21:32:04 15° S 21:36:06 50° W 21:41:00 10° NNW
Landsat 5 3.5 21:32:12 10° NNE 21:36:10 57° E 21:38:05 29° SSE
ATLAS CENTAUR R/B 0.9 21:35:13 28° S 21:36:49 56° ESE 21:40:18 10° NE
Cosmos 841 Rocket 3.5 21:32:55 10° NNW 21:38:13 85° WSW 21:41:16 26° SSE
Cosmos 1315 Rocket 4.1 21:39:54 23° ESE 21:40:22 23° E 21:43:34 10° NE
SJ 16-02 2.0 21:39:28 30° SE 21:40:31 34° ESE 21:44:27 10° NE
ARIANE 5 R/B 4.3 21:39:26 16° E 21:41:11 21° ENE 21:44:24 10° NNE
Meteor 1-4 Rocket 3.5 21:41:42 24° E 21:41:42 24° E 21:43:49 10° NE
SL-27 R/B 2.0 21:41:51 51° E 21:41:51 51° E 21:44:27 10° NNE
Okean 3 3.8 21:41:42 33° SE 21:43:01 44° E 21:47:00 10° NNE
Spot 2 Rocket 3.9 21:40:09 19° S 21:43:39 58° W 21:48:41 10° NNW
Cosmos 1953 3.8 21:43:43 10° NNE 21:46:43 21° ENE 21:47:31 20° E
S3M 4.4 21:43:45 10° NNW 21:50:01 61° W 21:54:50 17° SSW
Aureole 3 3.5 21:49:38 39° SE 21:50:43 54° E 21:55:07 10° NNE
Cosmos 1300 2.6 21:52:27 10° NNW 21:56:00 71° W 21:57:03 42° SSW
Cosmos 1655 Rocket 4.2 21:51:23 15° SSW 21:56:53 75° W 22:03:19 10° N
Cosmos 1733 Rocket 3.0 21:53:19 10° N 21:57:44 89° ENE 21:59:30 36° S
Spot 1 4.3 21:53:32 10° N 21:58:04 78° WNW 22:01:15 21° SSW
Cosmos 2360 Rocket 2.2 21:54:08 10° NNW 21:59:50 76° ENE 22:02:32 32° SE
H-2A R/B 4.4 21:59:14 16° E 22:00:43 19° ENE 22:03:42 10° NNE
GP-B 4.1 21:59:47 10° NNE 22:03:41 29° E 22:04:27 28° ESE
SL-14 R/B 4.1 22:04:47 22° SW 22:06:54 45° WNW 22:10:34 10° N
ATLAS 2AS CENTAUR R/B 2.7 22:01:05 10° NNW 22:07:55 74° NE 22:11:32 29° SE
Ariane Rocket 4.1 22:05:08 18° SSW 22:08:22 36° W 22:13:05 10° NNW
Cosmos 2333 Rocket 2.2 22:02:43 10° NNW 22:08:31 81° ENE 22:11:07 34° SSE
Cosmos 2228 Rocket 3.8 22:05:35 20° SSW 22:08:35 54° WNW 22:13:05 10° N
SL-16 R/B 2.9 22:03:26 10° NW 22:08:49 45° WSW 22:11:42 25° SSW
MetOp-A 4.1 22:07:04 32° S 22:09:30 76° WSW 22:14:47 10° NNW
Cosmos 1908 Rocket 4.3 22:06:04 10° N 22:10:08 38° ENE 22:11:05 33° ESE
BREEZE-M DEB (TANK) 4.4 22:09:42 10° WNW 22:12:13 38° N 22:17:44 10° ENE
Tiangong 0.5 22:11:31 10° WSW 22:11:54 12° WSW 22:11:54 12° WSW
RESURS DK-1 2.9 22:10:02 10° NW 22:13:58 47° WSW 22:14:58 38° SSW
Okean 1-7 3.0 22:13:22 47° SSE 22:14:22 62° E 22:18:39 10° NNE
Atlas Centaur 2 3.7 22:08:24 10° WSW 22:15:20 30° SSW 22:16:48 28° S
Cosmos 1346 Rocket 3.4 22:16:42 10° NNW 22:20:24 45° W 22:21:26 36° SW
Cosmos 1833 4.2 22:16:38 19° SSW 22:20:43 83° WNW 22:26:22 10° NNE
Cosmos 1244 Rocket 4.4 22:17:42 31° S 22:20:53 80° E 22:27:13 10° N
BlueWalker 3 4.4 22:24:27 11° ENE 22:24:27 11° ENE 22:24:40 10° ENE
Terra 3.8 22:18:18 11° SW 22:21:28 20° W 22:24:59 10° NW
Cosmos 1242 Rocket 3.9 22:23:20 21° NE 22:23:20 21° NE 22:24:36 10° NNE
USA 281 3.2 22:28:55 33° SE 22:32:04 76° ENE 22:38:40 10° NNW
Meteor 1-16 Rocket 4.4 22:26:35 10° NNW 22:32:31 75° W 22:35:01 36° S
Cosmos 2237 Rocket 4.4 22:29:09 10° N 22:32:47 17° NE 22:36:24 10° E
Cosmos 2322 4.4 22:28:16 10° NNW 22:33:42 44° ENE 22:36:10 28° ESE
ALOS 2 4.1 22:32:43 22° E 22:33:51 25° ENE 22:37:25 10° NNE
Cosmos 2333 4.2 22:33:54 10° NNW 22:39:40 75° WSW 22:41:39 43° S
CZ-3 Stage 3 4.2 22:02:48 10° W 22:40:08 49° SSW 22:45:18 30° SSE
CZ-4C R/B 3.4 22:42:23 20° E 22:42:23 20° E 22:45:06 10° ENE
CZ-2C R/B 3.6 22:38:03 10° N 22:42:28 81° WNW 22:43:37 50° SSW
Cosmos 968 Rocket 4.5 22:39:21 14° SW 22:43:27 43° WNW 22:48:24 10° N
Cosmos 1703 Rocket 3.5 22:48:43 58° SSW 22:49:35 84° W 22:54:04 10° N
Spot 4 4.2 22:49:10 43° ESE 22:50:16 52° ENE 22:54:57 10° N
Cosmos 1814 Rocket 4.3 22:45:51 10° NNW 22:51:03 57° WSW 22:52:30 42° SSW
SL-08 R/B 4.5 22:48:53 34° SSW 22:51:39 75° W 22:57:46 10° N
Cosmos 2322 Rocket 3.4 22:47:31 10° NW 22:52:29 32° WSW 22:54:24 26° SW
Okean 2 4.2 22:54:53 37° WSW 22:55:47 43° WNW 22:59:38 10° N
Cosmos 2242 Rocket 4.1 22:57:30 43° ESE 22:57:45 43° E 23:02:04 10° NNE
DNEPR-1 R/B 4.2 22:51:23 10° NW 22:57:56 83° WSW 22:59:29 50° SSE
Cosmos 2297 Rocket 3.4 22:57:55 26° ESE 22:58:08 26° ESE 23:02:43 10° NE
PSLV R/B 4.0 22:58:00 10° N 23:01:59 65° WNW 23:02:29 58° WSW
Cosmos 1455 2.7 23:00:09 10° NNW 23:03:18 44° W 23:03:18 44° W
Cosmos 2208 Rocket 4.2 22:59:27 10° NNW 23:04:36 59° ENE 23:05:55 45° ESE
SL-4 R/B 3.9 23:03:01 10° NW 23:06:35 29° NNE 23:10:18 10° ENE
CENTAUR R/B 4.2 23:12:45 14° E 23:12:45 14° E 23:15:33 10° ENE
COSMOS 2455 3.0 23:12:16 48° SSE 23:13:24 55° ESE 23:19:16 10° NE
COSMOS 2428 2.8 23:08:21 10° NNW 23:14:03 73° ENE 23:15:44 46° SE
GENESIS II 4.3 23:14:53 66° NNW 23:14:53 66° NNW 23:18:18 10° NNE
ATLAS CENTAUR R/B 4.0 23:12:43 10° WNW 23:14:48 15° NW 23:16:55 10° N
ARIANE 5 R/B 3.4 23:16:54 37° WSW 23:17:19 38° W 23:21:23 10° NNW
SJ 16-02 3.4 23:16:11 13° WSW 23:18:56 22° WNW 23:22:22 10° N
Cosmos 2219 Rocket 2.6 23:14:31 10° NW 23:19:57 48° WSW 23:21:08 42° SW
Cosmos 1953 3.8 23:19:18 10° NNW 23:22:29 25° W 23:22:38 25° W
Cosmos 304 Rocket 3.9 23:31:07 56° ESE 23:31:15 56° ESE 23:35:55 10° NNE
Cosmos 1745 Rocket 4.3 23:30:01 36° SW 23:32:32 60° W 23:38:50 10° N
PSLV R/B 3.8 23:29:08 10° NNE 23:33:06 54° E 23:33:06 54° E
H-2A R/B 3.1 23:35:13 43° WSW 23:35:19 44° W 23:39:26 10° NNW
Cosmos 1486 Rocket 3.9 23:41:55 56° SW 23:43:00 79° WNW 23:48:13 10° NNE
Cosmos 2360 Rocket 4.1 23:39:52 10° WNW 23:43:05 16° W 23:44:17 15° WSW
Cosmos 1825 3.8 23:47:12 23° ENE 23:47:12 23° ENE 23:49:15 10° NNE
Cosmos 2181 Rocket 4.1 23:41:31 10° N 23:47:40 63° E 23:49:34 43° SE
Cosmos 2333 Rocket 4.2 23:48:57 10° WNW 23:52:00 15° W 23:53:07 14° WSW
Cosmos 1408 4.3 23:54:41 21° NW 23:54:41 21° NW 23:56:23 10° NNW
